Home   Weather   Flagstaff   Past weeks

Flag for USA Past Weather in Flagstaff, Arizona, USA — Yesterday and Last 2 Weeks

42 °F


Feels Like: 42 °F
Forecast: 40 / 69 °F
Wind: No wind

Location: Flagstaff Pulliam Airport

Current Time: Oct 26, 2016 at 8:33:58 AM

Latest Report: Oct 26, 2016 at 7:57 AM

Visibility: 10 mi

Pressure: 30.28 "Hg (23.40 "Hg at 2103m altitude)

Humidity: 92%

Dew Point: 40 °F

Location of FlagstaffLocation

Past Weather in Flagstaff — Graph


Flagstaff Temperature Yesterday

Maximum temperature yesterday: 63 °F (at 1:57 PM)
Minimum temperature yesterday: 39 °F (at 11:57 PM)
Average temperature yesterday: 50 °F

High & Low Weather Summary for the Past Weeks

High72 °F (Oct 21, 2:57 PM)100% (Oct 25, 2:57 AM)30.29 "Hg (Oct 25, 2:57 AM)
Low27 °F (Oct 19, 5:57 AM)13% (Oct 20, 2:57 PM)29.78 "Hg (Oct 17, 2:57 PM)
Average51 °F50%30.06 "Hg
* Reported Oct 11 6:57 AM — Oct 26 6:57 AM, Flagstaff, Weather by CustomWeather, © 2016

Note: Actual official high and low records may vary slightly from our data, if they occured in-between our weather recording intervals... More about our weather records


Flagstaff Weather History for the Previous 24 Hours

Scroll right to see more
Time TempWeatherWind HumidityBarometerVisibility
6:57 AM
Wed, Oct 26
34 °FSunny.No wind97%30.28 "Hg10 mi
5:57 AM34 °FClear.No wind97%30.24 "Hg10 mi
4:57 AM35 °FClear.No wind92%30.19 "Hg10 mi
3:57 AM35 °FClear.No wind96%30.18 "Hg10 mi
2:57 AM37 °FClear.No wind93%30.19 "Hg10 mi
1:57 AM37 °FClear.No wind96%30.19 "Hg10 mi
12:57 AM38 °FClear.No wind97%30.19 "Hg10 mi
11:57 PM
Tue, Oct 25
39 °FClear.No wind96%30.18 "Hg10 mi
10:57 PM40 °FClear.No wind97%30.19 "Hg10 mi
9:57 PM41 °FClear.No wind96%30.22 "Hg10 mi
8:57 PM43 °FClear.No wind97%30.20 "Hg10 mi
7:57 PM45 °FClear.No wind93%30.19 "Hg10 mi
6:57 PM48 °FClear.No wind86%30.16 "Hg10 mi
5:57 PM53 °FClear.No wind77%30.12 "Hg10 mi
4:57 PM60 °FPassing clouds.9 mph58%30.08 "Hg10 mi
3:57 PM62 °FBroken clouds.12 mph54%30.07 "Hg10 mi
2:57 PM61 °FPassing clouds.10 mph54%30.06 "Hg10 mi
1:57 PM63 °FSunny.13 mph52%30.06 "Hg10 mi
12:57 PM61 °FPassing clouds.12 mph52%30.10 "Hg10 mi
11:57 AM60 °FBroken clouds.6 mph60%30.13 "Hg10 mi
10:57 AM57 °FPartly sunny.3 mph78%30.15 "Hg10 mi
9:57 AM49 °FBroken clouds.No wind100%30.16 "Hg10 mi
8:57 AM47 °FFog.3 mph100%30.16 "Hg1 mi
Weather by CustomWeather, © 2016

See weather overviewHow to use our weather pages